Погода Малые Дербеты

Погода Малые Дербеты : погода сейчас, прогноз погоды и архив. Всё, что Вы хотите узнать о погоде Малые Дербеты!

Хотите узнать прогноз погоды Малые Дербеты? Тогда Вам сюда: Погода Малые Дербеты

Поиск расширенной информации на нашем сайте:

Другие новости

Новости СМИ2

Главная страница сайта

Новости сайта

03.07.2017

Напоминаем, что на нашем специализированном сайте Метеоцентр.Азия вы можете получить высокодетализированные автоматические прогнозы погоды по пунктам России, СНГ и мира в авиационном формате (включающие направление и скорость ветра, видимость, явления погоды, количество и форму облачности, нижнюю и верхнюю границу облачности).

Рекомендуем: Заказать Письмо от Деда Мороза с доставкой на дом.

Погода Малые Дербеты - сегодня

Время (UTC), дата Ветер
(°,м/с) 
Видим.   Явления Облачность Т
(°С)
Тd
(°С)
f(%) Тe
(°С)
Pmin
(гПа)
dP
(гПа)
Po
(мм)
O2
(г/м3)
Тmin Tmax R s Состояние
почвы
21 21.06.18 300 (СЗ) 20000 м    ясно 
+21.3 +5.2 35 +21  1012.8  0.8  759  283           
00 22.06.18 310 (СЗ) 20000 м    ясно 
+19.4 +7.2 45 +20  1013.5  0.6  759  284           
03 22.06.18 340 (С) 20000 м    ясно 
+21.5 +10.3 49 +23  1014.1  0.6  760  282  +18.9         
06 22.06.18 040 (СВ) 20000 м    ясно 
+28.6 +6.7 25 +29  1013.7  -0.3  760  276           
09 22.06.18 060 (СВ) 20000 м    ясно 
+31.4 +4.6 18 +31  1013.1  -0.6  759  274           
12 22.06.18 020 (С) 20000 м    ясно 
+33.2 +2.9 15 +33  1011.7  -1.4  758  272           
15 22.06.18 010 (С) 20000 м    ясно 
+32.6 +3.5 16 +33  1010.6  -1.1  757  272    +33.4       
18 22.06.18 010 (С) 20000 м    ясно 
+27.2 +5.7 25 +27  1011.3  0.7  758  277           
21 22.06.18 320 (СЗ) 20000 м    ясно 
+21.7 +9.5 46 +22  1011.7  0.3  758  281           
00 23.06.18 230 (ЮЗ) 20000 м    ясно 
+19.2 +9.4 53 +21  1012  0.3  758  284           
03 23.06.18 020 (С) 20000 м    ясно 
+23 +6.7 35 +23  1012.4  0.5  759  281  +17.5         
06 23.06.18 120 (ЮВ) 20000 м    ясно 
+30.4 +3.3 18 +30  1012.5  0.1  759  275           
09 23.06.18 060 (СВ) 20000 м    ясно 
+33.1 +2.3 14 +33  1011.4  -1  758  272           
12 23.06.18 050 (СВ) 20000 м    ясно 
+34.1 +1.4 13 +34  1010.2  -1.2  757  271           
15 23.06.18 070 (В) 20000 м    1/0 верхняя 
[Ci fib]
+33.2 +1.4 13 +33  1009.4  -0.8  756  272    +34.2       
18 23.06.18 070 (В) 20000 м    8/0 верхняя 
[Ci fib]
+27.4 +0.6 17 +27  1010.4  757  277           
21 23.06.18 080 (В) 20000 м    6/0 верхняя 
[Ci fib]
+21.6 +1.1 26 +22  1010.3  -0.2  757  282           
00 24.06.18 300 (СЗ) 20000 м    4/0 верхняя 
[Ci fib]
+17.6 +2.7 37 +19  1010.9  0.6  757  286           
03 24.06.18 тихо ()   20000 м    4/0 верхняя 
[Ci fib]
+21.7 +4.4 32 +22  1011.8  0.9  758  282  +16.1         
06 24.06.18 110 (В) 20000 м    10/0 верхняя 
[Cs]
+30.2 +6.4 22 +30  1011.9  0.2  758  274           
09 24.06.18 140 (ЮВ) 20000 м    10/0 верхняя 
[Cs]
+34 -0.4 11 +34  1012  0.1  758  272           
12 24.06.18 150 (ЮВ) 20000 м    10/0 средняя, верхняя 
[Ac trans|Ci fib]
+35.6 +0.1 11 +36  1011.7  0.1  758  270           
15 24.06.18 140 (ЮВ) 20000 м    8/0 средняя 
[Ac trans]
+33.3 +1.8 14 +33  1011.3  -0.5  758  272    +35.6       
18 24.06.18 280 (З) 20000 м    10/0 верхняя 
[Cs]
+27.1 +13.1 42 +32  1013.3  759  276           
21 24.06.18 290 (З) 20000 м    ясно 
+24.1 +14.6 55 +32  1013.8  0.5  760  278           
Время (UTC), дата Ветер
(°,м/с) 
Видим.   Явления Облачность Т
(°С)
Тd
(°С)
f(%) Тe
(°С)
Pmin
(гПа)
dP
(гПа)
Po
(мм)
O2
(г/м3)
Тmin Tmax R s Состояние
почвы

Для получения пояснительной информации подведите курсор к названию столбца.

ПОГОДА Малые Дербеты - архив

Всё, что Вы хотите узнать о погоде Малые Дербеты - удобно и подробно!

Выберите нужную дату (начиная с 1 января 2015* года) и нажмите кнопку "Найти".
Будут отображены архивные сводки погоды по пункту Малые Дербеты, начиная с указанной даты.


Отображать данные в формате CSV (для использования в таблицах Excel)


Внимание! Наш архив погоды предназначен исключительно для личного некоммерческого использования в познавательных целях. Если Вам необходимы официальные справки о состоянии погоды (для производственных, юридических, коммерческих и т.п. целей), обращайтесь в органы Росгидромета.

*Примечание: данная дата относится к архиву по метеостанциям СССР (Россия, СНГ, Балтия).
Архив по метеостанциям Зарубежной Европы и Азии (кроме Китая) хранится 10 дней, по другим регионам земного шара (Китай, Африка, Америка, Австралия, Океания) - 1 день.

Малые Дербеты - район местоположения метеостанции


Название, широта, долгота, высота метеостанции:
Малые Дербеты 47.9°ш. 44.7°д. 9 м над ур. моря [Российская Федерация]

Дополнительная информация

В oтличие oт бoльшинства пoгoдных сайтoв мы публикуем пoдрoбную метеoинфoрмацию в детальнoм прoфессиoнальнoм фoрмате.

Характеристики температуры и влажнoсти вoздуха измеряются на высoте 2 м в тени вдали oт зданий и деревьев.
Скoрoсть ветра измеряется на высoте 10 м (на урoвне рoста челoвека скoрoсть ветра ниже в 1.5-2 раза). Если метеoстанция нахoдится в гoрoде или в лесу, тo скoрoсть ветра занижена на 2-4 м/с пo сравнению с oткрытым местoм. Скoрoсть ветра над акватoриями крупных рек и oзёр, а также на вершинах хoлмoв на 2-5 м/с выше, чем в oбычных услoвиях.
Атмoсфернoе давление в разных тoчках местнoсти мoжет значительнo oтличаться oт давления на метеoстанции, в зависимoсти oт услoвий рельефа (при пoдъёме на 10 м давление пoнижается примернo на 1 мм рт.ст.).